Change the Weather History Date:

Monday, December 9, 2013

  Actual Average Record
Temperature  
Mean Temperature 28 °F -  
Max Temperature 30 °F 18 °F 51 °F (2005)
Min Temperature 26 °F 8 °F -9 °F (1999)
Degree Days  
Heating Degree Days 37    
Moisture  
Dew Point 28 °F    
Average Humidity 98    
Maximum Humidity 100    
Minimum Humidity 93    
Precipitation  
Precipitation 0.01 in - - ()
Sea Level Pressure  
Sea Level Pressure 30.31 in    
Wind  
Wind Speed 2 mph (ENE)    
Max Wind Speed 9 mph    
Max Gust Speed -    
Visibility 8 miles    
Events      
Averages and records for this station are not official NWS values.
T = Trace of Precipitation, MM = Missing Value Source: NWS Daily Summary

Daily Weather History Graph

Daily Weather History Graph

Search for Another Location

Airport or City:

Trip Planner

Search our weather history database for the weather conditions in past years. The results will help you decide how hot, cold, wet, or windy it might be!

Date:

Astronomy

Dec. 09, 2013 Rise Set
Actual Time 10:02 AM AKST 3:38 PM AKST
Civil Twilight 9:00 AM AKST 4:40 PM AKST
Nautical Twilight 8:01 AM AKST 5:39 PM AKST
Astronomical Twilight 7:07 AM AKST 6:33 PM AKST
Moon 1:07 PM AKST (12/9) 12:22 AM AKST (12/9)
Length of Visible Light 7h 39m
Length of Day
5h 36m
First Quarter, 52% of the Moon is Illuminated
Dec 9
First Quarter
Dec 17
Full
Dec 25
Last Quarter
Jan 1
New
Jan 7
First Quarter

Hourly Weather History & Observations

Time (AKST) Temp. Windchill Dew Point Humidity Pressure Visibility Wind Dir Wind Speed Gust Speed Precip Events Conditions
12:16 AM 28.4 °F 24.6 °F 28.4 °F 100% 30.41 in 10.0 mi SSW 3.5 mph - N/A   Overcast
12:36 AM 28.4 °F - 28.4 °F 100% 30.40 in 7.0 mi Calm Calm - N/A   Overcast
12:56 AM 28.4 °F - 28.4 °F 100% 30.40 in 7.0 mi Calm Calm - N/A   Overcast
1:16 AM 28.4 °F 24.6 °F 28.4 °F 100% 30.40 in 10.0 mi NNE 3.5 mph - N/A   Overcast
1:36 AM 28.4 °F 21.2 °F 28.4 °F 100% 30.40 in 10.0 mi NE 6.9 mph - N/A   Overcast
1:56 AM 26.6 °F 20.0 °F 26.6 °F 100% 30.39 in 10.0 mi NE 5.8 mph - N/A   Overcast
2:16 AM 26.6 °F 17.5 °F 26.6 °F 100% 30.39 in 10.0 mi NE 9.2 mph - N/A   Mostly Cloudy
2:36 AM 26.6 °F 20.0 °F 26.6 °F 100% 30.38 in 10.0 mi NE 5.8 mph - N/A   Partly Cloudy
2:56 AM 26.6 °F 21.2 °F 24.8 °F 93% 30.38 in 10.0 mi NE 4.6 mph - N/A   Scattered Clouds
3:16 AM 26.6 °F - 24.8 °F 93% 30.38 in 10.0 mi Calm Calm - N/A   Scattered Clouds
3:36 AM 26.6 °F - 26.6 °F 100% 30.38 in 10.0 mi Calm Calm - N/A   Scattered Clouds
3:56 AM 26.6 °F 22.6 °F 26.6 °F 100% 30.37 in 10.0 mi ESE 3.5 mph - N/A   Clear
4:16 AM 26.6 °F - 26.6 °F 100% 30.37 in 10.0 mi Calm Calm - N/A   Mostly Cloudy
4:36 AM 26.6 °F 21.2 °F 26.6 °F 100% 30.36 in 10.0 mi NE 4.6 mph - N/A   Overcast
4:56 AM 26.6 °F 19.1 °F 26.6 °F 100% 30.36 in 10.0 mi NNE 6.9 mph - N/A   Overcast
5:16 AM 26.6 °F 17.5 °F 26.6 °F 100% 30.36 in 10.0 mi ENE 9.2 mph - N/A   Overcast
5:36 AM 26.6 °F 20.0 °F 26.6 °F 100% 30.35 in 10.0 mi NNE 5.8 mph - N/A   Overcast
5:56 AM 26.6 °F 19.1 °F 26.6 °F 100% 30.35 in 10.0 mi NNE 6.9 mph - N/A   Overcast
6:16 AM 28.4 °F 21.2 °F 28.4 °F 100% 30.34 in 10.0 mi NNE 6.9 mph - N/A   Overcast
6:36 AM 28.4 °F 22.2 °F 28.4 °F 100% 30.34 in 10.0 mi ENE 5.8 mph - N/A   Overcast
6:56 AM 28.4 °F - 28.4 °F 100% 30.34 in 10.0 mi Calm Calm - N/A   Overcast
7:16 AM 28.4 °F 24.6 °F 28.4 °F 100% 30.33 in 10.0 mi East 3.5 mph - N/A   Overcast
7:36 AM 28.4 °F 24.6 °F 28.4 °F 100% 30.33 in 10.0 mi East 3.5 mph - N/A   Overcast
7:56 AM 28.4 °F 19.7 °F 28.4 °F 100% 30.32 in 10.0 mi NE 9.2 mph - N/A   Overcast
8:16 AM 28.4 °F 22.2 °F 28.4 °F 100% 30.32 in 10.0 mi NE 5.8 mph - N/A   Overcast
8:36 AM 28.4 °F 24.6 °F 28.4 °F 100% 30.33 in 10.0 mi SE 3.5 mph - N/A   Overcast
8:56 AM 28.4 °F 23.3 °F 28.4 °F 100% 30.33 in 10.0 mi SSW 4.6 mph - N/A   Overcast
9:16 AM 28.4 °F - 28.4 °F 100% 30.33 in 10.0 mi Calm Calm - N/A   Overcast
9:36 AM 28.4 °F - 28.4 °F 100% 30.33 in 10.0 mi Calm Calm - N/A   Overcast
9:56 AM 28.4 °F - 28.4 °F 100% 30.33 in 10.0 mi Calm Calm - N/A   Overcast
10:16 AM 28.4 °F - 28.4 °F 100% 30.33 in 10.0 mi Calm Calm - N/A   Overcast
10:36 AM 28.4 °F - 26.6 °F 93% 30.34 in 10.0 mi Calm Calm - N/A   Overcast
10:56 AM 28.4 °F - 26.6 °F 93% 30.34 in 10.0 mi Calm Calm - N/A   Overcast
11:16 AM 28.4 °F - 26.6 °F 93% 30.34 in 10.0 mi Calm Calm - N/A   Overcast
11:36 AM 28.4 °F - 26.6 °F 93% 30.34 in 10.0 mi Calm Calm - N/A   Overcast
11:56 AM 28.4 °F - 28.4 °F 100% 30.34 in 10.0 mi Calm Calm - N/A   Overcast
12:16 PM 28.4 °F 23.3 °F 28.4 °F 100% 30.33 in 10.0 mi South 4.6 mph - N/A   Overcast
12:36 PM 28.4 °F - 28.4 °F 100% 30.33 in 10.0 mi Calm Calm - N/A   Overcast
12:56 PM 30.2 °F - 28.4 °F 93% 30.33 in 3.0 mi Calm Calm - N/A   Overcast
1:16 PM 30.2 °F - 28.4 °F 93% 30.33 in 10.0 mi Calm Calm - N/A   Overcast
1:36 PM 30.2 °F - 30.2 °F 100% 30.33 in 10.0 mi Calm Calm - N/A   Overcast
1:56 PM 30.2 °F - 30.2 °F 100% 30.32 in 10.0 mi Calm Calm - N/A   Overcast
2:16 PM 30.2 °F - 30.2 °F 100% 30.31 in 10.0 mi Calm Calm - N/A   Overcast
2:36 PM 30.2 °F - 30.2 °F 100% 30.30 in 10.0 mi Calm Calm - N/A   Overcast
2:56 PM 30.2 °F - 30.2 °F 100% 30.30 in 10.0 mi Calm Calm - N/A   Overcast
3:16 PM 30.2 °F - 30.2 °F 100% 30.29 in 10.0 mi Calm Calm - N/A   Overcast
3:36 PM 30.2 °F - 30.2 °F 100% 30.29 in 10.0 mi Calm Calm - N/A   Overcast
3:56 PM 30.2 °F 26.7 °F 30.2 °F 100% 30.28 in 9.0 mi SSE 3.5 mph - N/A   Overcast
4:16 PM 30.2 °F - 30.2 °F 100% 30.28 in 9.0 mi Calm Calm - N/A   Overcast
4:36 PM 30.2 °F - 30.2 °F 100% 30.27 in 5.0 mi Calm Calm - N/A   Overcast
4:56 PM 30.2 °F - 30.2 °F 100% 30.27 in 5.0 mi Calm Calm - N/A   Mostly Cloudy
5:16 PM 30.2 °F - 28.4 °F 93% 30.27 in 3.0 mi Calm Calm - N/A   Overcast
5:36 PM 30.2 °F - 28.4 °F 93% 30.27 in 2.5 mi Calm Calm - N/A   Overcast
5:56 PM 30.2 °F - 30.2 °F 100% 30.27 in 3.0 mi Calm Calm - N/A   Overcast
6:16 PM 30.2 °F - 28.4 °F 93% 30.27 in 2.5 mi Calm Calm - N/A   Overcast
6:36 PM 30.2 °F - 30.2 °F 100% 30.26 in 5.0 mi Calm Calm - 0.01 in   Overcast
6:56 PM 30.2 °F - 30.2 °F 100% 30.26 in 3.0 mi Calm Calm - 0.01 in   Overcast
7:16 PM 30.2 °F - 28.4 °F 93% 30.26 in 10.0 mi Calm Calm - N/A   Overcast
7:36 PM 30.2 °F - 28.4 °F 93% 30.26 in 9.0 mi Calm Calm - N/A   Overcast
7:56 PM 30.2 °F - 28.4 °F 93% 30.25 in 5.0 mi Calm Calm - N/A   Overcast
8:16 PM 30.2 °F - 28.4 °F 93% 30.25 in 3.0 mi Calm Calm - N/A   Overcast
8:36 PM 30.2 °F - 28.4 °F 93% 30.24 in 3.0 mi Calm Calm - N/A   Overcast
8:56 PM 30.2 °F - 30.2 °F 100% 30.24 in 7.0 mi Calm Calm - N/A   Overcast
9:16 PM 30.2 °F - 30.2 °F 100% 30.24 in 10.0 mi Calm Calm - N/A   Overcast
9:36 PM 30.2 °F - 30.2 °F 100% 30.24 in 10.0 mi Calm Calm - N/A   Overcast
9:56 PM 30.2 °F - 30.2 °F 100% 30.24 in 9.0 mi Calm Calm - N/A   Overcast
10:16 PM 30.2 °F - 28.4 °F 93% 30.24 in 5.0 mi Calm Calm - N/A   Overcast
10:36 PM 30.2 °F - 28.4 °F 93% 30.23 in 5.0 mi Calm Calm - N/A   Overcast
10:56 PM 30.2 °F - 30.2 °F 100% 30.23 in 4.0 mi Calm Calm - N/A   Overcast
11:16 PM 30.2 °F - 28.4 °F 93% 30.23 in 4.0 mi Calm Calm - N/A   Overcast
11:36 PM 30.2 °F - 28.4 °F 93% 30.23 in 2.5 mi Calm Calm - N/A   Overcast
11:56 PM 30.2 °F - 28.4 °F 93% 30.22 in 3.0 mi Calm Calm - N/A   Overcast